RH
26 22 21 22 22 19 20 26 27 28 29 33 48 57 60 62 67 66 70 75 81 80 68 64 48 46 42 31 27 28 29 24 19 24 23 26 25 30 30 30 31 26 26
26 23 22 23 23 24 24 22 26 29 30 32 37 48 62 71 66 73 77 84 85 75 65 57 46 37 34 28 26 27 27 29 19 22 27 42 30 26 26 31 29 23 21
23 23 22 21 22 24 25 26 25 27 31 33 40 54 67 81 87 88 88 83 76 71 62 49 46 39 29 27 27 27 27 30 28 20 24 38 43 28 22 28 23 22 22
22 20 20 20 19 21 24 25 26 28 28 33 51 57 78 90 88 86 80 76 70 68 53 45 44 33 29 28 27 26 22 27 29 29 23 21 22 36 37 22 22 23 22
23 23 24 20 17 16 21 24 25 28 30 36 53 66 78 85 86 80 76 74 74 63 46 46 36 31 29 28 26 24 22 22 25 26 26 23 24 25 33 45 33 22 22
18 17 16 16 19 20 18 18 32 29 34 45 58 74 76 80 82 77 73 72 66 53 42 36 31 31 30 26 28 26 24 22 22 24 25 24 25 27 29 39 35 34 30
17 20 21 25 24 20 22 22 26 37 42 56 65 75 74 73 77 76 75 69 56 41 36 34 33 31 29 27 26 26 24 26 29 29 28 26 27 28 28 30 40 47 39
20 20 23 29 27 26 23 25 34 45 55 64 71 72 74 72 73 73 73 62 52 42 39 35 32 31 30 28 28 29 30 28 30 32 33 32 33 33 32 35 42 55 52
22 23 26 31 32 31 30 28 38 49 61 71 66 69 71 69 69 67 64 60 50 39 35 34 32 30 28 28 29 29 28 27 31 32 34 36 37 36 36 38 40 48 60
24 27 39 42 41 40 31 32 42 52 63 66 68 70 69 66 64 62 57 48 42 33 32 30 29 29 29 27 27 27 28 27 30 31 33 35 38 40 40 42 42 43 49
29 32 45 44 46 44 33 37 49 56 61 66 69 66 65 56 52 48 42 35 31 30 29 29 30 29 28 27 28 27 28 29 31 34 37 39 40 42 43 44 45 45 44
26 33 52 51 51 44 45 46 53 60 63 59 53 54 50 44 44 38 34 32 32 33 30 29 29 28 27 26 26 26 26 31 34 37 39 41 43 45 45 46 46 47 49
35 48 56 57 59 53 57 58 61 55 51 49 47 46 43 42 43 36 36 33 32 32 33 33 36 29 27 26 26 27 30 34 38 41 42 43 46 48 49 50 50 56 61
45 50 61 62 57 65 66 59 55 49 48 46 44 43 44 40 37 35 32 29 29 30 29 28 28 27 27 28 29 36 41 44 45 46 45 45 45 46 48 52 56 63 66
46 57 65 63 58 64 56 52 50 43 42 43 42 40 38 36 35 35 36 39 32 29 29 28 28 29 30 29 30 29 37 46 48 46 45 45 44 49 52 54 56 60 66
66 65 63 57 60 50 48 48 44 41 38 37 35 34 32 32 31 29 29 30 32 30 30 33 32 33 30 30 29 34 40 45 52 50 49 47 48 48 52 56 58 60 62
68 67 62 49 45 43 41 38 37 36 37 38 38 39 40 42 43 46 46 49 36 34 33 33 33 34 34 35 33 40 53 46 51 50 48 48 48 52 52 55 59 60 68
64 60 52 44 41 39 36 38 39 40 39 40 39 39 38 40 40 36 36 35 35 34 34 34 34 34 36 35 37 54 50 54 53 48 45 46 49 52 56 56 61 67 73
54 48 43 40 37 39 43 43 42 42 45 46 50 49 45 42 47 48 38 35 34 34 34 34 34 35 36 39 46 60 64 62 56 53 54 56 58 55 56 62 68 85 89
42 43 41 44 44 44 48 54 56 64 72 70 66 48 56 72 54 37 35 36 36 34 33 34 35 36 36 38 49 59 64 68 66 66 66 65 60 60 63 67 86 97 76
57 60 70 82 84 86 84 85 86 93 90 87 82 67 47 36 35 35 39 36 34 35 35 34 33 32 34 38 45 52 59 65 69 69 66 63 64 66 75 73 69 70 65
93 92 91 96 99 100 95 98 98 93 69 42 34 35 37 37 36 36 35 36 37 35 32 32 33 35 36 39 42 48 54 61 66 67 67 69 74 71 67 66 64 64 67
43 51 59 59 50 46 39 34 35 33 35 36 40 42 42 43 41 40 41 38 36 33 33 35 36 39 41 42 47 62 65 71 71 70 74 75 74 72 64 59 63 64 63
62 55 50 46 40 38 36 37 36 36 38 40 40 39 38 39 38 39 40 36 37 37 39 44 48 48 50 52 56 72 75 76 76 85 84 80 70 61 62 65 65 68 73
40 39 38 38 38 37 37 36 37 36 37 38 40 40 39 39 39 38 34 34 42 35 38 54 59 63 68 70 75 77 76 75 78 73 77 69 64 72 73 74 75 79 84
41 40 38 37 37 37 38 37 36 36 37 39 39 40 40 39 37 35 34 35 35 35 38 44 58 62 69 76 76 76 74 74 74 72 68 71 78 80 80 81 85 89 92
Wind_Speed
11 21 24 24 24 28 29 34 31 31 31 28 30 30 31 25 28 28 29 31 28 25 26 24 22 17 15 12 10 9 5 3 4 1 1 4 3 3 5 7 6 6 7
12 14 21 24 30 28 27 27 27 29 38 34 30 27 27 25 30 31 29 31 28 27 26 25 23 20 19 15 11 8 6 3 6 3 1 2 1 4 6 8 8 8 6
14 15 15 22 26 29 31 28 28 29 31 34 30 25 27 26 28 30 29 27 26 27 26 25 24 20 19 17 12 10 7 6 4 5 3 2 1 4 1 8 6 6 7
13 14 14 14 21 28 32 35 32 32 31 35 31 35 29 24 27 36 32 28 26 25 26 26 22 21 19 17 13 10 9 7 6 4 3 2 1 1 3 2 2 9 6
9 10 11 18 28 26 20 35 37 32 32 37 32 35 30 23 31 32 32 28 26 25 25 24 23 20 18 17 13 11 9 9 7 5 3 2 3 5 4 4 4 16 20
4 4 4 7 11 20 27 24 29 36 29 33 31 35 34 32 32 32 32 30 29 27 26 24 22 20 18 16 14 11 9 8 7 5 3 2 1 1 2 2 4 11 16
2 3 6 6 13 18 18 23 20 29 28 30 27 32 29 33 34 35 34 32 30 29 26 24 23 20 18 15 12 10 8 7 5 4 4 3 4 5 8 10 10 5 14
2 3 3 6 14 16 21 21 18 22 27 30 29 28 30 31 31 32 34 32 31 32 27 23 21 19 16 15 11 9 7 4 3 3 4 5 5 6 8 9 9 5 5
5 3 4 7 16 22 19 21 23 21 26 29 27 27 33 32 31 30 33 34 30 30 27 24 21 19 17 13 10 7 4 3 3 3 4 6 6 8 10 11 12 10 5
5 3 6 8 19 26 22 23 23 26 26 28 25 32 32 31 30 33 31 28 30 29 28 24 21 19 17 13 11 7 5 4 3 4 6 8 9 11 13 14 14 15 17
5 4 4 8 20 28 14 22 22 21 26 25 31 34 34 34 32 31 32 33 31 29 26 22 19 15 13 11 9 6 4 2 3 5 8 10 11 13 13 14 17 19 20
3 4 4 6 17 18 9 18 22 24 28 31 33 33 34 31 32 31 32 33 30 27 24 20 17 14 11 8 7 5 2 3 5 7 10 12 13 14 16 16 18 18 20
6 4 6 4 10 8 5 15 23 27 33 32 33 31 32 29 30 33 32 30 29 25 24 22 17 14 9 7 5 2 2 4 7 10 12 14 15 17 17 17 17 17 21
12 5 2 4 9 7 13 20 27 29 30 30 30 28 28 29 31 31 29 30 28 25 20 18 15 11 9 5 2 1 4 6 9 12 14 15 16 18 17 17 22 20 21
14 5 5 3 1 11 16 23 27 30 30 29 27 27 30 31 32 30 28 26 25 23 20 17 12 9 6 4 0 4 5 8 11 13 15 15 14 16 19 20 19 21 23
4 7 6 2 5 15 16 22 27 27 29 26 27 29 32 32 32 32 31 27 23 20 16 12 9 6 4 0 4 6 9 10 12 16 16 17 17 16 17 19 21 21 24
4 7 6 11 14 16 19 21 25 28 26 26 28 29 31 30 28 27 26 24 19 19 15 11 7 4 0 3 6 7 10 13 14 16 18 19 18 18 21 21 22 23 22
7 7 10 14 18 19 21 23 23 26 24 25 28 28 29 27 26 25 20 18 17 16 12 8 4 2 3 5 8 9 12 13 14 16 18 18 19 19 21 24 23 23 26
11 11 18 20 21 22 23 24 25 25 25 25 28 27 26 24 22 25 20 16 15 12 9 5 3 2 2 6 9 10 13 14 15 16 17 18 22 22 22 24 26 25 27
17 18 21 23 24 22 25 25 25 26 23 23 26 29 28 25 19 19 18 14 10 9 6 4 3 3 6 4 7 9 13 16 17 18 21 19 19 22 23 26 26 23 23
19 21 23 23 24 26 29 26 24 23 26 28 25 22 23 24 20 17 14 11 9 7 4 4 5 5 5 6 8 11 13 15 19 20 22 21 22 24 25 27 25 25 28
18 19 22 20 22 25 27 25 21 24 26 27 27 24 22 20 17 15 12 9 7 6 5 5 4 6 7 9 11 12 13 16 21 22 22 24 24 27 27 25 23 23 24
17 19 20 21 20 23 23 24 22 28 28 27 24 22 21 18 14 12 10 8 7 6 5 6 8 9 11 11 10 11 15 19 21 22 23 25 25 26 22 21 21 21 22
15 19 20 20 20 20 20 23 27 26 26 24 23 20 19 16 13 11 9 7 5 6 8 9 10 11 12 12 14 18 20 20 22 22 23 22 22 18 19 20 21 22 21
17 17 18 19 20 23 24 23 24 25 26 23 20 17 15 13 10 8 7 6 6 8 8 7 9 10 14 15 16 19 20 22 20 24 22 22 19 20 19 19 20 21 22
19 20 20 22 21 22 23 21 21 22 23 21 17 14 13 10 9 8 8 7 6 8 8 7 8 11 11 13 17 19 20 20 20 17 17 17 18 17 19 20 23 23 24
Wind_Direction
246 250 242 249 246 236 233 216 211 202 202 212 204 196 200 199 190 194 189 188 194 195 187 182 174 177 171 165 166 149 141 75 20 346 1 238 257 236 220 234 244 258 298
244 248 250 232 235 245 244 238 216 200 200 202 209 206 189 186 189 184 184 183 190 187 189 180 173 171 168 165 165 166 144 105 45 66 9 6 234 237 242 222 225 277 272
240 242 247 247 235 227 239 244 236 222 203 195 197 191 178 166 157 164 170 175 187 185 185 181 177 174 169 161 165 164 164 151 85 62 96 43 262 323 235 213 259 260 280
237 242 249 256 245 232 225 232 241 230 220 197 189 189 173 161 167 169 170 173 182 182 179 179 176 171 167 159 158 155 147 143 130 114 71 101 112 118 329 16 289 311 306
213 218 221 232 249 259 248 225 229 236 218 198 191 184 173 172 170 168 168 176 180 179 179 176 171 166 162 154 158 154 140 140 141 146 140 182 234 233 199 275 280 297 299
250 257 249 263 262 251 247 251 227 220 214 194 190 183 173 168 166 168 168 174 175 173 175 172 166 164 163 158 158 153 150 144 149 144 135 172 202 33 301 292 302 293 307
236 301 326 307 263 238 243 243 244 208 195 186 185 179 174 180 179 170 168 163 163 168 167 167 166 161 158 156 157 154 146 144 149 166 179 206 250 272 285 290 292 278 305
268 257 299 314 299 274 231 225 221 196 181 178 175 177 177 180 176 170 168 165 161 164 165 164 163 158 155 155 154 151 152 157 152 207 228 249 263 275 281 287 300 304 269
246 236 2 341 322 307 227 220 203 197 182 173 173 178 170 169 163 166 162 163 164 161 161 162 161 155 152 151 148 149 156 157 211 229 263 283 290 285 287 285 290 281 294
121 28 38 6 323 304 257 211 204 192 176 171 170 150 154 161 158 158 160 153 156 156 157 159 155 152 153 152 154 161 185 191 213 272 277 280 286 285 284 292 292 289 286
4 350 39 347 309 299 243 198 182 181 169 166 141 147 148 145 146 148 150 150 152 155 153 151 150 150 148 148 147 164 196 236 269 278 291 290 290 293 292 290 293 291 288
327 310 48 347 301 296 229 176 173 155 134 128 135 144 144 144 141 139 142 151 147 149 147 145 146 144 148 152 153 160 207 281 290 293 292 292 294 291 297 300 297 296 298
312 12 30 346 296 295 161 133 124 117 126 134 134 134 137 136 137 142 146 144 142 142 148 152 151 154 150 160 153 172 247 289 295 297 295 293 293 295 296 297 297 301 304
307 294 61 292 278 76 104 101 103 114 125 132 131 133 137 137 134 135 135 138 140 140 145 145 147 146 158 151 142 14 315 313 304 300 296 297 296 294 294 295 298 298 294
260 190 140 268 205 103 100 106 111 120 127 129 134 137 134 131 130 130 131 135 142 144 148 144 137 145 127 147 260 302 315 309 302 299 301 297 297 298 298 299 304 303 299
82 118 135 159 78 103 100 104 116 125 127 131 131 128 124 124 124 128 133 139 141 140 133 128 138 128 135 224 324 331 324 315 309 306 305 301 302 302 304 302 300 300 304
147 135 127 103 91 94 101 96 112 123 124 127 124 121 118 117 121 128 135 138 141 134 128 129 124 117 271 313 330 333 322 320 319 311 306 304 304 304 304 302 300 298 297
128 115 107 101 103 108 108 112 110 114 118 118 111 110 112 113 119 125 125 135 133 124 126 121 115 79 1 318 325 332 331 326 319 315 312 310 312 311 307 305 306 309 309
83 88 97 102 105 109 113 113 113 111 109 105 104 107 110 113 119 129 135 137 123 118 117 106 61 26 332 329 336 338 335 329 324 324 320 319 316 316 310 313 319 313 308
76 90 100 102 102 108 114 106 103 100 98 99 106 120 126 128 134 130 123 121 120 110 89 63 20 340 338 334 322 325 332 333 327 321 321 321 316 315 313 314 312 303 308
87 96 92 92 102 102 103 100 105 104 114 118 115 122 131 136 130 121 115 120 102 86 66 30 14 346 330 323 332 328 324 321 314 313 317 319 317 313 312 311 312 312 309
95 101 108 110 113 116 113 105 116 129 123 125 130 128 125 119 118 124 114 99 86 69 46 23 7 357 350 340 329 320 317 321 321 320 322 319 313 316 314 313 312 311 314
112 124 126 126 126 126 125 121 120 127 124 121 117 119 118 114 109 102 94 77 58 48 31 11 7 5 347 340 336 334 325 322 320 319 316 316 316 316 315 318 317 317 317
96 94 95 96 99 109 115 119 125 122 119 117 116 113 107 103 93 81 75 69 53 37 17 10 357 340 337 333 330 331 328 324 319 315 318 318 319 320 321 321 321 320 319
113 111 107 104 102 108 108 113 120 125 114 110 109 103 96 89 84 74 56 57 36 11 356 339 332 337 334 333 329 328 325 320 320 321 322 328 332 329 327 323 319 318 317
104 103 105 106 106 106 104 112 116 115 114 106 99 95 92 85 73 58 45 28 12 356 350 342 331 330 326 327 328 327 323 325 324 325 331 327 327 322 321 319 318 315 312